Time,TemperatureF,DewpointF,PressureIn,WindDirection,WindDirectionDegrees,WindSpeedMPH,WindSpeedGustMPH,Humidity,HourlyPrecipIn,Conditions,Clouds,dailyrainin,SolarRadiationWatts/m^2,SoftwareType,DateUTC
2013-08-28 13:24:00,85.0,69.0,-100.00,SSW,203,3.0,4.0,59,0.00,,,0.00,432.000000,,2013-08-28 17:24:00,
2013-08-28 13:35:00,85.0,69.0,-100.00,SSW,203,3.0,4.0,59,0.00,,,0.00,432.000000,,2013-08-28 17:35:00,
2013-08-28 13:44:00,85.0,69.0,-100.00,SSW,203,3.0,4.0,59,0.00,,,0.00,432.000000,,2013-08-28 17:44:00,
2013-08-28 13:52:00,85.0,69.0,-100.00,SSW,203,3.0,4.0,59,0.00,,,0.00,432.000000,,2013-08-28 17:52:00,
2013-08-28 14:02:00,85.0,69.0,-100.00,SSW,203,3.0,4.0,59,0.00,,,0.00,432.000000,,2013-08-28 18:02:00,
2013-08-28 14:22:00,87.0,70.0,-100.00,SW,216,3.0,6.0,57,0.00,,,0.00,583.000000,,2013-08-28 18:22:00,
2013-08-28 14:32:00,87.0,70.0,-100.00,SW,216,3.0,6.0,57,0.00,,,0.00,583.000000,,2013-08-28 18:32:00,
2013-08-28 14:42:00,87.0,70.0,-100.00,SW,216,3.0,6.0,57,0.00,,,0.00,583.000000,,2013-08-28 18:42:00,
2013-08-28 14:53:00,87.0,70.0,-100.00,SW,216,3.0,6.0,57,0.00,,,0.00,583.000000,,2013-08-28 18:53:00,
2013-08-28 15:02:00,87.0,70.0,-100.00,SW,216,3.0,6.0,57,0.00,,,0.00,583.000000,,2013-08-28 19:02:00,
2013-08-28 15:22:00,88.0,71.0,-100.00,WSW,248,6.0,11.0,58,0.00,,,0.00,775.000000,,2013-08-28 19:22:00,
2013-08-28 15:32:00,88.0,71.0,-100.00,WSW,248,6.0,11.0,58,0.00,,,0.00,775.000000,,2013-08-28 19:32:00,
2013-08-28 15:42:00,88.0,71.0,-100.00,WSW,248,6.0,11.0,58,0.00,,,0.00,775.000000,,2013-08-28 19:42:00,
2013-08-28 15:52:00,88.0,71.0,-100.00,WSW,248,6.0,11.0,58,0.00,,,0.00,775.000000,,2013-08-28 19:52:00,
2013-08-28 16:03:00,88.0,71.0,-100.00,WSW,248,6.0,11.0,58,0.00,,,0.00,775.000000,,2013-08-28 20:03:00,
2013-08-28 16:23:00,88.0,68.0,-100.00,SW,228,6.0,13.0,51,0.00,,,0.00,809.000000,,2013-08-28 20:23:00,
2013-08-28 16:32:00,88.0,68.0,-100.00,SW,228,6.0,13.0,51,0.00,,,0.00,809.000000,,2013-08-28 20:32:00,
2013-08-28 16:43:00,88.0,68.0,-100.00,SW,228,6.0,13.0,51,0.00,,,0.00,809.000000,,2013-08-28 20:43:00,
2013-08-28 16:52:00,88.0,68.0,-100.00,SW,228,6.0,13.0,51,0.00,,,0.00,809.000000,,2013-08-28 20:52:00,
2013-08-28 17:01:00,88.0,68.0,-100.00,SW,228,6.0,13.0,51,0.00,,,0.00,809.000000,,2013-08-28 21:01:00,
2013-08-28 17:04:00,87.0,69.0,-100.00,SW,226,5.0,10.0,56,0.00,,,0.00,564.000000,,2013-08-28 21:04:00,
2013-08-28 17:22:00,87.0,69.0,-100.00,SW,226,5.0,10.0,56,0.00,,,0.00,564.000000,,2013-08-28 21:22:00,
2013-08-28 17:35:00,87.0,69.0,-100.00,SW,226,5.0,10.0,56,0.00,,,0.00,564.000000,,2013-08-28 21:35:00,
2013-08-28 17:44:00,87.0,69.0,-100.00,SW,226,5.0,10.0,56,0.00,,,0.00,564.000000,,2013-08-28 21:44:00,
2013-08-28 17:57:00,87.0,69.0,-100.00,SW,226,5.0,10.0,56,0.00,,,0.00,564.000000,,2013-08-28 21:57:00,
2013-08-28 18:25:00,86.0,70.0,-100.00,SSW,210,5.0,11.0,60,0.00,,,0.00,404.000000,,2013-08-28 22:25:00,
2013-08-28 18:34:00,86.0,70.0,-100.00,SSW,210,5.0,11.0,60,0.00,,,0.00,404.000000,,2013-08-28 22:34:00,
2013-08-28 18:43:00,86.0,70.0,-100.00,SSW,210,5.0,11.0,60,0.00,,,0.00,404.000000,,2013-08-28 22:43:00,
2013-08-28 18:54:00,86.0,70.0,-100.00,SSW,210,5.0,11.0,60,0.00,,,0.00,404.000000,,2013-08-28 22:54:00,
2013-08-28 19:03:00,86.0,70.0,-100.00,SSW,210,5.0,11.0,60,0.00,,,0.00,404.000000,,2013-08-28 23:03:00,
2013-08-28 19:22:00,83.0,70.0,-100.00,SSW,207,3.0,9.0,66,0.00,,,0.00,192.000000,,2013-08-28 23:22:00,
2013-08-28 19:33:00,83.0,70.0,-100.00,SSW,207,3.0,9.0,66,0.00,,,0.00,192.000000,,2013-08-28 23:33:00,
2013-08-28 19:42:00,83.0,70.0,-100.00,SSW,207,3.0,9.0,66,0.00,,,0.00,192.000000,,2013-08-28 23:42:00,
2013-08-28 19:53:00,83.0,70.0,-100.00,SSW,207,3.0,9.0,66,0.00,,,0.00,192.000000,,2013-08-28 23:53:00,
2013-08-28 20:03:00,83.0,70.0,-100.00,SSW,207,3.0,9.0,66,0.00,,,0.00,192.000000,,2013-08-29 00:03:00,
2013-08-28 20:04:00,80.0,72.0,-100.00,SW,230,1.0,4.0,76,0.00,,,0.00,36.000000,,2013-08-29 00:04:00,
2013-08-28 21:22:00,76.0,72.0,-100.00,SSW,213,2.0,4.0,87,0.00,,,0.00,1.000000,,2013-08-29 01:22:00,
2013-08-28 21:32:00,76.0,72.0,-100.00,SSW,213,2.0,4.0,87,0.00,,,0.00,1.000000,,2013-08-29 01:32:00,
2013-08-28 21:42:00,76.0,72.0,-100.00,SSW,213,2.0,4.0,87,0.00,,,0.00,1.000000,,2013-08-29 01:42:00,
2013-08-28 21:52:00,76.0,72.0,-100.00,SSW,213,2.0,4.0,87,0.00,,,0.00,1.000000,,2013-08-29 01:52:00,
2013-08-28 22:03:00,76.0,72.0,-100.00,SSW,213,2.0,4.0,87,0.00,,,0.00,1.000000,,2013-08-29 02:03:00,
2013-08-28 22:22:00,74.0,72.0,-100.00,WSW,254,1.0,4.0,93,0.00,,,0.00,0.000000,,2013-08-29 02:22:00,
2013-08-28 22:32:00,74.0,72.0,-100.00,WSW,254,1.0,4.0,93,0.00,,,0.00,0.000000,,2013-08-29 02:32:00,
2013-08-28 22:43:00,74.0,72.0,-100.00,WSW,254,1.0,4.0,93,0.00,,,0.00,0.000000,,2013-08-29 02:43:00,
2013-08-28 22:52:00,74.0,72.0,-100.00,WSW,254,1.0,4.0,93,0.00,,,0.00,0.000000,,2013-08-29 02:52:00,
2013-08-28 23:02:00,74.0,72.0,-100.00,WSW,254,1.0,4.0,93,0.00,,,0.00,0.000000,,2013-08-29 03:02:00,
2013-08-28 23:04:00,73.0,71.0,-100.00,SSW,193,1.0,3.0,95,0.00,,,0.00,0.000000,,2013-08-29 03:04:00,
2013-08-28 23:23:00,73.0,71.0,-100.00,SSW,193,1.0,3.0,95,0.00,,,0.00,0.000000,,2013-08-29 03:23:00,
2013-08-28 23:37:00,73.0,71.0,-100.00,SSW,193,1.0,3.0,95,0.00,,,0.00,0.000000,,2013-08-29 03:37:00,
2013-08-28 23:45:00,73.0,71.0,-100.00,SSW,193,1.0,3.0,95,0.00,,,0.00,0.000000,,2013-08-29 03:45:00,
2013-08-28 23:57:00,73.0,71.0,-100.00,SSW,193,1.0,3.0,95,0.00,,,0.00,0.000000,,2013-08-29 03:57:00,